Wind_Speed
50 51 51 50 48 46 43 41 41 42 42 43 43 40 41 40 29 20 19 17 17 17 16 16 17 17 17 17 17 18 19 21 22 24 26 28 29 31 32 34 35 37 38 40 42 44 46 48 49 50 52 52 53 53 53 53 52 51 50 51 52 53
43 43 45 44 42 42 41 39 39 39 39 39 38 36 37 38 30 21 16 15 15 15 15 16 17 18 19 20 22 23 23 25 26 27 29 30 32 34 35 36 38 39 41 43 45 46 48 49 50 51 52 52 52 51 50 49 48 49 50 51 52 53
37 37 37 36 34 34 36 37 36 35 35 35 34 32 33 36 37 33 28 24 21 19 20 22 24 24 25 25 26 26 26 27 28 29 31 32 34 35 37 38 40 41 43 45 46 48 49 50 51 52 51 50 49 47 47 47 48 49 51 51 52 53
32 31 31 30 30 29 29 31 32 31 32 32 31 31 32 35 39 41 38 34 31 28 28 29 29 29 29 28 28 27 28 29 30 31 33 34 36 37 39 40 42 43 45 46 48 49 50 51 51 49 48 46 45 46 47 48 49 50 50 51 53 54
28 26 26 28 30 29 28 27 28 29 30 30 30 30 31 32 34 36 36 34 32 32 32 31 30 30 30 30 29 29 30 31 32 33 35 36 38 39 40 42 43 44 46 47 48 49 49 48 46 45 44 44 46 47 47 48 49 50 51 53 55 57
29 25 24 25 27 28 27 27 27 28 28 29 30 29 30 30 30 31 31 30 30 30 30 30 30 30 30 30 30 31 32 33 34 35 37 38 39 40 41 42 44 45 46 47 47 46 45 43 43 44 45 46 47 47 47 48 50 51 53 56 58 60
36 29 26 26 26 26 28 27 27 27 28 29 29 29 29 29 28 28 28 29 29 30 31 31 31 31 31 32 32 33 33 34 36 37 39 40 41 41 42 43 44 45 45 44 43 42 42 43 44 46 46 46 47 47 48 50 52 54 56 59 61 62
41 38 35 33 31 30 29 29 29 29 29 28 28 28 28 28 28 28 29 30 31 32 33 33 33 34 34 34 35 35 35 36 37 39 40 41 42 42 43 43 43 43 41 40 40 41 43 45 46 46 46 47 47 49 50 52 55 57 59 61 63 65
39 39 38 35 32 29 28 28 29 29 29 28 28 28 28 29 29 29 30 31 32 33 34 35 36 38 38 38 38 38 38 39 40 41 42 43 43 43 42 42 40 39 39 40 42 44 45 46 46 46 47 48 49 51 53 55 58 59 61 63 65 67
34 35 34 32 29 26 26 26 27 28 29 29 29 28 29 30 30 31 32 33 33 35 36 36 37 39 40 40 40 40 40 41 42 43 43 43 43 42 40 39 39 40 42 43 44 45 45 46 46 47 48 50 52 54 56 58 60 61 63 65 67 70
29 30 29 27 26 26 26 27 28 29 30 31 30 30 31 32 32 33 34 35 36 37 37 38 39 40 40 40 40 41 41 42 42 43 43 43 41 39 38 38 41 43 44 44 44 45 45 46 47 49 51 53 55 57 58 60 62 64 66 68 70 72
23 23 22 23 25 27 27 28 30 31 31 31 31 32 33 34 34 34 35 36 38 38 39 39 40 40 39 39 40 40 41 41 42 42 42 40 38 38 39 42 43 44 44 44 44 45 46 47 49 51 53 56 57 59 61 62 64 66 68 70 71 73
21 22 22 24 26 27 28 29 31 31 31 32 32 33 34 35 35 36 37 38 39 39 39 39 39 39 39 39 40 41 41 40 40 40 39 38 39 41 42 44 44 44 44 44 45 46 48 49 52 54 56 58 60 61 63 64 66 68 69 71 72 73
23 24 24 25 27 27 28 30 30 31 32 32 33 34 35 36 36 37 38 38 38 38 38 38 38 39 40 40 40 40 39 38 38 39 39 40 41 43 43 44 44 44 45 45 47 48 50 52 55 57 58 60 62 63 65 67 68 69 71 72 72 73
23 24 25 25 26 27 29 30 30 31 32 33 34 34 35 35 35 36 37 37 37 37 37 38 39 40 40 40 39 38 37 37 38 39 40 41 42 43 44 45 45 45 46 48 49 51 53 56 57 59 60 62 64 66 67 68 70 71 72 72 72 73
23 24 25 26 27 28 28 28 29 30 31 32 33 33 34 34 34 35 36 36 36 37 38 39 40 39 39 38 37 36 37 38 40 41 41 42 42 44 45 46 47 48 49 51 53 55 57 58 60 61 63 65 66 67 69 70 71 72 72 72 73 73
23 24 25 25 26 26 26 27 28 29 30 31 32 32 33 34 34 35 35 36 36 37 38 39 38 38 37 36 37 38 39 40 40 41 41 42 44 45 46 48 49 51 52 54 56 58 59 61 62 64 65 67 68 69 71 72 72 72 71 72 73 74
21 22 23 23 23 24 25 27 28 29 29 30 31 32 33 33 34 35 35 36 36 36 37 37 37 37 37 38 38 39 40 40 40 41 42 44 46 47 49 51 53 54 55 57 59 60 62 63 65 66 67 68 70 71 72 72 71 71 72 72 73 74
21 22 23 24 24 25 26 28 29 30 31 31 31 32 33 33 33 33 33 33 34 35 36 37 38 39 39 39 39 40 40 40 41 42 44 46 48 50 52 54 55 57 58 60 61 63 64 66 66 68 69 70 71 72 72 71 71 71 72 73 73 74
24 25 25 25 26 27 28 29 30 30 30 29 30 30 30 29 30 30 31 33 34 36 38 39 40 40 40 40 40 40 40 41 42 44 46 49 51 53 54 56 58 59 61 62 64 65 66 67 68 69 70 71 71 71 70 70 71 71 72 73 74 74
22 23 23 24 24 25 25 25 25 25 25 25 27 27 27 28 30 32 34 35 37 39 40 40 41 41 41 40 41 42 43 44 45 47 49 52 54 55 57 59 60 62 63 65 66 67 68 68 70 70 71 71 70 69 69 70 70 71 71 72 73 73
17 18 19 20 21 22 22 22 23 23 24 26 28 28 28 31 34 35 36 37 38 40 41 41 42 42 42 42 44 45 46 47 48 50 53 55 57 58 59 61 63 64 65 66 67 68 69 70 70 71 70 69 68 68 69 70 70 70 71 72 72 71
16 18 19 21 22 23 24 25 26 26 28 29 29 29 31 34 36 36 37 38 39 40 41 42 43 44 44 46 48 49 49 50 52 53 56 58 59 60 61 63 65 65 67 68 69 69 70 71 71 70 69 68 68 69 70 70 70 70 71 71 70 70
20 22 23 25 26 26 27 28 28 29 30 29 28 30 34 36 37 37 38 39 40 42 43 44 45 46 47 49 51 52 53 54 54 55 58 60 61 61 63 64 66 67 68 69 70 70 71 71 70 69 68 68 68 69 69 69 69 69 69 69 69 69
23 25 26 27 27 27 27 28 28 30 30 29 30 33 36 37 38 39 40 42 43 44 46 47 48 49 51 52 55 56 56 57 57 58 60 61 61 62 64 66 68 69 69 70 70 70 70 70 69 68 67 68 69 69 68 68 69 68 68 68 68 68
25 26 27 27 27 28 29 29 30 32 31 32 34 37 38 39 41 42 43 45 46 47 49 50 52 53 54 56 58 59 59 59 59 60 61 61 62 63 66 68 69 70 70 69 69 68 69 68 67 66 67 68 68 67 67 68 68 67 67 67 67 66
27 28 28 29 30 31 32 33 35 35 36 38 41 42 42 44 45 46 47 48 50 51 53 54 56 57 58 59 61 61 61 60 60 60 61 62 63 65 67 69 70 70 69 68 67 66 66 66 66 66 67 67 67 67 67 67 67 66 65 65 65 65
31 32 33 34 35 36 38 39 40 40 42 45 47 47 48 49 50 50 52 53 54 56 57 58 59 59 60 61 61 61 61 61 61 62 63 64 66 67 69 70 70 69 67 65 64 64 64 64 66 67 67 66 66 67 67 66 65 65 64 64 64 65
36 37 38 39 40 41 42 43 44 44 47 49 51 51 52 53 54 54 55 56 57 58 59 60 60 60 61 61 61 62 62 62 63 64 66 67 68 69 70 70 69 67 65 63 63 62 63 64 66 66 66 66 66 66 65 65 64 63 62 63 64 65
39 40 41 42 43 45 46 46 47 48 50 52 53 54 55 55 56 57 57 58 58 59 59 59 60 61 62 62 62 63 64 64 66 68 68 69 70 70 70 70 68 65 63 62 62 63 64 65 65 64 65 65 65 65 64 63 62 62 61 62 64 64
41 43 43 44 46 47 48 48 49 51 52 53 55 56 56 56 57 58 58 58 59 59 59 60 61 62 63 63 64 65 66 68 69 70 70 71 71 71 70 68 66 63 61 61 62 63 64 63 63 63 64 64 64 64 63 61 61 61 61 62 63 64
42 43 45 45 47 49 49 50 51 52 53 54 56 57 58 58 59 59 58 58 59 59 60 61 62 63 63 64 65 67 68 69 70 71 71 71 69 68 67 65 63 61 60 62 63 62 62 62 62 63 64 64 63 62 60 60 60 60 60 61 62 63
41 43 44 46 48 49 50 51 52 52 53 55 56 58 59 59 60 59 59 59 59 59 61 62 63 64 65 66 67 68 69 69 70 70 68 66 64 64 63 61 60 59 60 62 62 61 60 61 62 63 63 62 61 59 58 58 59 60 60 61 61 63
43 44 46 47 49 49 50 51 51 52 53 54 56 57 58 59 60 59 59 59 60 61 63 64 65 66 67 67 67 67 68 68 67 66 63 61 61 61 59 58 58 59 60 60 60 60 61 62 62 62 62 61 59 57 56 57 58 59 60 61 62 63
46 47 48 49 49 50 51 52 52 52 53 54 56 58 59 59 59 59 60 60 61 63 64 65 65 66 66 66 66 66 66 65 64 62 61 60 59 58 57 57 59 59 59 58 59 60 61 62 62 62 61 58 56 55 56 58 58 59 59 60 61 63
48 49 49 50 50 52 53 53 52 52 54 56 58 59 60 60 59 60 60 61 62 63 63 64 64 64 64 64 64 64 63 62 61 61 60 58 57 56 57 58 58 58 58 58 60 60 61 62 62 60 58 56 55 55 56 58 58 58 59 60 61 62
48 49 50 51 52 53 54 54 54 55 57 58 60 61 61 60 59 58 59 60 61 61 62 61 61 61 61 61 61 61 61 61 61 60 58 55 55 57 58 58 57 57 58 59 60 61 61 61 60 57 55 55 55 56 57 58 58 58 58 59 61 62
48 49 50 51 53 54 54 54 55 56 58 60 61 61 60 58 57 57 57 57 58 59 59 59 59 59 59 59 59 60 60 60 59 57 54 54 56 58 58 57 57 58 59 60 60 60 60 59 57 55 54 54 55 56 57 58 58 57 57 59 60 62
Wind_Direction
239 241 243 243 244 246 247 248 247 245 247 248 252 255 252 251 252 244 239 244 246 247 248 249 251 253 255 258 261 265 270 275 281 284 285 286 285 285 284 284 285 284 284 284 283 283 282 283 283 284 285 287 289 290 291 292 293 294 295 296 297 297
239 241 243 244 245 246 246 247 247 246 247 249 252 255 253 249 247 248 250 246 244 245 247 255 264 268 272 275 277 280 282 284 285 284 284 284 284 284 284 284 284 283 282 281 281 281 282 283 284 285 287 289 290 291 291 292 293 294 295 295 296 297
238 240 242 240 239 240 241 241 242 244 246 248 251 253 252 249 248 255 265 262 254 252 256 265 272 276 280 282 284 285 286 285 283 282 282 283 283 284 283 282 281 280 280 279 280 281 282 284 286 287 288 289 290 290 291 292 293 293 294 295 296 298
237 237 235 230 225 229 235 237 238 241 244 247 250 251 251 250 249 254 261 261 260 265 269 274 277 280 284 286 286 285 283 282 280 279 280 280 280 280 279 278 277 277 278 279 280 282 283 285 286 287 288 288 289 290 291 292 292 293 295 296 297 299
231 227 223 221 222 227 235 240 242 244 247 248 251 252 251 251 251 252 257 261 267 275 279 279 281 282 283 283 282 281 278 276 276 275 275 275 275 275 274 275 275 277 278 279 281 283 284 285 285 286 287 287 288 289 291 292 293 294 296 297 298 299
223 219 218 221 227 231 237 242 244 245 247 248 249 251 254 258 260 261 265 270 275 278 279 279 280 279 278 278 277 276 274 273 273 273 273 273 273 273 274 275 276 278 279 281 282 283 283 284 284 285 286 287 288 290 292 293 294 296 297 298 300 301
222 223 228 233 236 238 238 240 243 245 248 249 252 255 259 264 267 268 271 273 274 275 275 276 277 277 277 276 276 274 273 272 272 273 273 274 274 275 275 276 278 279 280 281 281 282 282 283 284 285 286 288 290 292 293 295 297 298 299 300 301 302
226 233 240 244 246 246 244 243 244 247 248 251 253 256 258 262 265 268 269 270 272 273 275 276 277 277 277 276 276 274 273 272 273 274 275 276 276 276 276 277 278 279 279 279 279 280 281 282 283 285 287 289 292 294 296 298 299 300 300 302 303 303
231 237 242 245 247 247 245 245 246 248 249 250 251 254 257 260 262 263 264 265 267 269 271 273 275 277 277 276 275 274 273 272 273 274 275 276 276 276 275 276 276 276 276 276 278 279 281 283 285 288 290 292 294 296 298 299 300 301 302 303 303 303
233 237 241 243 244 244 243 245 247 248 247 248 250 252 253 255 258 260 261 262 264 265 265 267 267 268 269 269 269 270 270 271 271 272 274 274 274 273 273 273 273 274 275 277 280 282 284 286 288 291 293 295 297 298 299 300 301 302 303 303 303 304
231 236 238 239 240 241 242 244 246 246 247 249 251 251 251 253 257 260 261 262 262 263 264 263 262 261 261 262 264 265 266 267 268 270 270 271 271 271 272 273 273 275 278 280 283 285 287 289 291 293 296 297 298 299 300 301 302 302 303 303 304 304
224 229 230 231 235 238 240 242 245 247 250 253 254 254 256 258 259 260 260 260 260 261 262 261 261 261 262 262 263 263 264 265 266 266 267 268 269 270 272 273 275 278 280 283 285 287 289 291 294 296 298 299 300 301 301 302 302 303 303 303 303 303
218 224 224 225 231 236 239 243 247 251 254 256 255 256 257 258 258 258 258 259 259 260 261 262 262 263 263 264 264 265 265 265 265 265 266 268 270 272 274 276 278 280 282 285 287 290 292 294 296 298 299 300 300 301 301 302 302 303 303 303 303 303
220 226 228 230 235 239 242 245 248 251 252 253 253 253 255 257 259 259 260 261 262 262 262 262 262 262 263 264 265 265 265 265 265 266 270 272 274 276 278 279 281 283 286 288 291 293 295 297 298 299 299 300 300 301 301 302 302 302 302 302 303 303
226 231 234 238 241 242 244 248 251 252 254 255 257 258 260 261 262 262 262 263 263 263 262 262 263 264 265 265 265 265 265 266 268 271 275 277 278 280 281 282 285 287 289 292 294 295 296 297 298 299 299 300 300 301 301 301 302 302 302 302 303 303
232 236 239 242 245 247 250 253 255 256 258 259 261 261 262 263 263 262 263 263 263 263 264 265 267 267 267 266 267 268 270 272 275 278 279 280 281 282 284 286 288 290 292 294 295 296 297 298 298 299 299 300 300 301 301 301 301 302 302 303 303 303
236 239 242 245 247 251 253 255 256 257 259 260 261 261 263 264 264 264 264 264 265 265 266 266 267 266 267 268 270 273 275 277 279 280 281 281 282 284 286 288 290 292 293 294 295 296 297 298 299 299 300 300 300 300 300 300 301 302 303 303 303 304
244 246 248 251 255 257 258 258 259 260 261 261 263 263 264 264 264 265 265 265 265 265 265 266 266 267 269 271 273 276 277 278 279 280 280 282 283 286 288 289 291 293 294 295 296 297 298 298 299 299 300 300 299 299 300 301 302 303 303 303 304 304
249 251 252 254 256 257 257 258 259 260 260 261 262 262 263 263 264 264 264 264 264 264 265 266 268 270 272 273 275 277 277 278 279 280 281 283 285 287 289 291 292 293 294 296 297 297 298 298 299 299 299 299 299 299 300 301 302 303 303 304 304 304
248 250 251 252 254 255 256 257 258 259 259 260 261 261 262 262 263 263 263 263 264 265 266 268 269 271 273 275 276 278 279 280 281 282 284 286 287 289 290 292 293 294 295 296 297 297 298 298 298 298 298 299 299 300 301 301 302 303 303 304 304 305
244 246 248 249 250 251 252 252 254 255 256 257 257 258 259 261 262 262 263 263 264 265 266 268 270 272 275 277 279 280 282 284 285 285 286 287 289 290 291 292 293 294 295 296 296 296 296 297 298 298 298 299 299 300 301 301 302 303 303 303 304 305
239 240 242 243 243 245 247 249 251 252 253 254 255 258 261 263 263 263 263 263 264 265 267 269 272 275 278 280 282 284 286 286 286 287 287 288 290 291 292 292 293 294 295 295 295 295 296 297 298 298 298 299 300 300 301 301 302 302 302 303 303 304
243 243 244 245 245 247 249 250 251 252 253 255 257 260 262 261 260 261 262 264 265 268 270 272 275 278 281 283 284 286 287 287 287 287 287 289 290 291 291 292 293 293 294 294 294 295 296 297 298 298 299 299 300 300 301 301 301 301 301 302 303 304
248 248 248 248 249 250 251 253 255 256 257 259 261 261 259 259 260 263 265 267 269 271 273 276 278 281 283 284 285 286 286 287 287 287 287 288 290 291 291 291 292 292 293 293 295 296 297 297 298 298 299 299 300 300 300 300 300 301 301 302 303 304
250 251 252 254 256 257 258 259 260 260 261 262 262 260 260 261 264 266 268 271 273 275 277 279 281 283 284 285 285 286 287 287 287 287 287 289 290 290 290 290 291 291 292 293 295 296 297 297 298 298 299 299 300 300 299 299 300 301 302 303 303 304
258 259 261 264 265 265 265 265 265 265 266 267 265 264 265 268 269 271 273 275 277 279 280 282 283 284 284 285 285 286 287 287 287 287 288 289 289 289 289 289 290 291 292 294 296 296 297 297 297 298 298 299 299 298 299 300 301 302 303 303 304 305
270 271 272 272 272 272 272 272 272 273 274 273 272 272 274 274 275 277 278 280 281 281 282 283 283 284 284 284 285 285 286 286 286 287 287 287 287 287 288 288 290 291 293 295 295 295 295 296 297 297 298 298 298 298 299 300 301 302 303 304 305 306
276 276 275 275 275 275 275 275 276 278 278 277 277 278 279 279 280 281 281 282 282 282 282 283 283 284 283 283 284 284 285 285 286 286 285 286 286 287 287 289 291 293 294 295 294 294 294 295 297 298 298 298 298 299 299 300 302 303 304 304 305 307
279 278 278 278 278 277 278 278 279 279 279 279 279 280 280 280 281 282 282 282 282 282 283 283 283 283 283 283 283 283 284 285 285 285 285 286 286 287 289 291 293 294 294 294 293 293 294 295 296 297 297 297 298 299 300 301 302 303 304 305 306 308
280 280 280 280 279 279 279 279 280 279 278 279 279 280 280 281 281 281 281 282 282 282 282 282 282 282 282 282 283 284 284 285 285 285 286 287 288 289 291 293 293 294 293 292 292 293 294 295 295 295 296 297 298 299 300 302 303 303 304 306 307 309
281 281 281 280 280 279 279 279 279 278 278 279 279 280 281 281 280 280 280 280 281 281 280 280 280 281 281 282 283 283 284 284 285 286 286 287 289 290 291 291 291 291 290 290 291 292 294 294 294 295 296 298 298 299 301 302 303 303 305 307 308 310
280 280 280 280 279 278 278 278 277 278 279 279 280 280 281 280 280 280 279 279 279 279 279 279 280 280 280 281 281 282 282 283 284 285 286 287 288 289 288 288 288 288 288 289 291 293 294 294 295 296 297 298 298 300 301 302 303 304 306 308 309 310
275 275 275 275 274 274 275 276 277 278 278 279 279 280 280 280 280 280 280 279 279 279 279 279 279 279 280 280 280 281 282 282 283 284 285 286 287 286 286 286 286 287 289 290 292 293 294 294 296 297 297 298 299 300 301 302 303 305 306 308 310 311
271 271 271 271 272 274 275 276 276 277 277 278 279 279 279 280 280 280 279 279 278 278 278 278 279 279 279 280 280 281 282 283 284 284 285 286 286 285 285 286 287 289 291 292 293 293 294 295 297 297 297 298 299 300 301 302 303 305 306 308 310 311
274 274 274 274 275 276 276 276 276 277 277 278 278 278 279 279 279 279 279 278 278 278 278 279 279 280 280 281 281 281 282 283 284 284 285 286 285 285 285 287 289 291 292 292 292 293 295 296 297 297 297 298 299 300 300 301 303 305 307 309 311 312
279 279 279 279 278 278 277 277 276 276 276 277 277 278 278 278 278 279 279 279 279 280 280 280 280 281 281 281 282 282 283 283 283 284 285 286 286 286 288 290 291 291 291 291 292 294 295 296 296 296 296 297 298 299 299 301 303 305 307 309 310 311
281 281 281 281 281 280 280 278 276 275 276 277 277 277 278 279 280 281 281 281 281 281 281 281 281 281 282 282 282 282 283 283 283 284 286 287 287 288 290 290 290 290 290 291 292 294 294 294 294 295 296 296 297 298 299 301 303 305 307 308 310 311
282 282 282 282 282 282 282 281 279 279 280 279 278 278 279 280 281 282 282 281 281 281 281 281 281 281 282 282 282 283 283 284 285 286 287 287 288 289 289 289 289 289 290 291 292 292 293 293 293 294 295 295 296 298 300 301 303 305 306 308 310 311
Height
5695 5698 5700 5704 5707 5709 5712 5715 5717 5720 5722 5724 5726 5728 5730 5734 5736 5735 5734 5735 5736 5737 5737 5738 5738 5739 5740 5740 5741 5742 5742 5742 5742 5743 5743 5743 5743 5743 5742 5742 5741 5740 5739 5738 5737 5736 5735 5734 5732 5731 5729 5728 5726 5724 5723 5721 5719 5717 5715 5713 5711 5708
5692 5694 5697 5700 5703 5706 5708 5711 5713 5716 5719 5720 5723 5724 5726 5730 5733 5733 5733 5733 5734 5734 5735 5735 5736 5737 5738 5739 5739 5739 5739 5739 5739 5739 5738 5739 5738 5738 5737 5736 5735 5734 5733 5732 5731 5730 5729 5728 5727 5725 5723 5722 5720 5719 5717 5715 5713 5711 5709 5706 5704 5702
5689 5692 5694 5697 5700 5702 5705 5707 5710 5713 5715 5717 5719 5721 5723 5725 5728 5729 5729 5731 5732 5733 5733 5734 5735 5735 5735 5735 5735 5735 5735 5735 5735 5734 5734 5734 5733 5733 5732 5731 5730 5729 5728 5727 5726 5725 5724 5722 5721 5719 5717 5716 5714 5713 5711 5709 5707 5705 5702 5700 5697 5695
5687 5689 5691 5694 5697 5700 5702 5704 5707 5709 5712 5714 5716 5717 5719 5721 5723 5725 5726 5728 5729 5730 5731 5731 5731 5731 5731 5731 5731 5731 5730 5730 5730 5729 5729 5729 5728 5727 5727 5726 5725 5724 5723 5722 5720 5719 5717 5716 5714 5713 5712 5710 5708 5707 5704 5702 5700 5698 5696 5693 5690 5687
5684 5687 5689 5692 5695 5698 5700 5702 5704 5706 5709 5711 5713 5714 5716 5717 5719 5721 5722 5724 5725 5725 5726 5726 5726 5726 5726 5726 5726 5725 5725 5725 5725 5724 5724 5723 5723 5722 5722 5721 5720 5719 5718 5716 5715 5713 5711 5710 5709 5707 5706 5704 5702 5700 5698 5696 5693 5691 5688 5685 5681 5678
5683 5685 5688 5690 5693 5696 5698 5700 5702 5704 5706 5708 5710 5711 5713 5714 5715 5716 5718 5719 5720 5720 5721 5721 5721 5721 5720 5720 5720 5720 5720 5719 5719 5719 5719 5718 5718 5717 5716 5715 5714 5713 5712 5710 5709 5707 5705 5704 5703 5701 5700 5698 5696 5694 5691 5689 5686 5683 5680 5677 5673 5670
5680 5683 5685 5688 5691 5693 5695 5697 5699 5701 5703 5705 5706 5708 5709 5710 5711 5712 5713 5714 5714 5715 5715 5715 5715 5715 5715 5715 5715 5715 5715 5714 5714 5714 5713 5713 5712 5711 5710 5709 5708 5707 5706 5704 5703 5701 5700 5698 5697 5695 5693 5691 5689 5686 5684 5681 5678 5675 5672 5668 5665 5661
5677 5680 5682 5685 5688 5690 5692 5694 5696 5698 5699 5701 5702 5703 5705 5706 5707 5708 5709 5709 5709 5710 5710 5710 5710 5710 5710 5710 5710 5710 5710 5709 5709 5709 5708 5707 5707 5706 5705 5704 5703 5701 5700 5699 5697 5696 5694 5692 5690 5689 5686 5684 5681 5679 5676 5673 5670 5667 5664 5660 5656 5652
5674 5676 5679 5682 5684 5686 5688 5690 5692 5694 5695 5697 5698 5699 5700 5701 5702 5703 5704 5704 5705 5705 5706 5706 5706 5706 5706 5705 5705 5705 5705 5704 5704 5703 5703 5702 5701 5700 5699 5698 5697 5696 5695 5693 5692 5690 5688 5686 5684 5682 5679 5677 5674 5672 5669 5666 5663 5659 5655 5652 5648 5644
5671 5673 5676 5679 5681 5683 5685 5686 5688 5690 5691 5692 5693 5694 5695 5696 5697 5698 5699 5700 5700 5701 5701 5702 5702 5702 5701 5701 5701 5700 5699 5699 5698 5698 5697 5696 5695 5694 5693 5692 5691 5690 5689 5687 5685 5683 5681 5679 5677 5675 5672 5670 5667 5664 5661 5658 5654 5651 5647 5643 5639 5635
5668 5670 5673 5675 5677 5679 5681 5683 5684 5686 5687 5688 5689 5690 5690 5691 5693 5694 5694 5695 5696 5696 5697 5697 5697 5696 5696 5696 5695 5695 5694 5694 5693 5692 5691 5690 5690 5689 5688 5687 5685 5684 5682 5680 5678 5676 5675 5673 5670 5668 5665 5662 5660 5657 5653 5650 5646 5642 5638 5634 5630 5627
5664 5667 5669 5672 5674 5676 5677 5679 5680 5682 5683 5684 5684 5685 5686 5687 5688 5689 5690 5690 5690 5691 5691 5691 5691 5691 5690 5690 5689 5689 5688 5688 5687 5686 5685 5685 5684 5683 5682 5680 5678 5677 5675 5673 5672 5670 5668 5666 5664 5661 5658 5655 5652 5649 5645 5641 5638 5634 5630 5626 5621 5617
5661 5664 5666 5669 5670 5672 5674 5675 5676 5677 5678 5679 5680 5681 5681 5682 5683 5684 5685 5685 5685 5686 5686 5686 5686 5685 5685 5684 5683 5683 5682 5682 5681 5680 5679 5679 5678 5677 5675 5673 5671 5670 5668 5667 5665 5663 5661 5659 5656 5654 5651 5647 5644 5641 5637 5633 5630 5626 5622 5617 5613 5609
5659 5661 5663 5665 5667 5668 5670 5671 5672 5673 5674 5675 5675 5676 5677 5678 5679 5679 5680 5680 5680 5681 5681 5681 5680 5680 5679 5678 5677 5677 5676 5676 5675 5674 5674 5673 5672 5670 5668 5666 5665 5663 5661 5660 5658 5656 5653 5651 5649 5647 5644 5640 5636 5633 5629 5625 5621 5618 5613 5609 5605 5601
5657 5659 5660 5662 5664 5665 5666 5667 5668 5669 5670 5670 5671 5672 5672 5673 5674 5675 5675 5675 5676 5676 5675 5675 5674 5674 5673 5672 5671 5671 5671 5670 5670 5669 5668 5667 5665 5663 5661 5659 5658 5656 5654 5652 5650 5649 5646 5644 5642 5639 5636 5633 5629 5625 5621 5617 5613 5609 5605 5601 5597 5592
5655 5656 5658 5659 5660 5661 5662 5663 5664 5665 5666 5666 5667 5668 5668 5669 5670 5670 5670 5670 5670 5670 5669 5669 5668 5667 5667 5666 5666 5666 5665 5665 5664 5663 5662 5660 5658 5656 5654 5652 5651 5649 5647 5646 5644 5642 5640 5637 5635 5632 5628 5625 5621 5617 5613 5609 5605 5601 5598 5593 5589 5584
5652 5654 5655 5656 5657 5658 5659 5660 5661 5661 5662 5663 5663 5664 5664 5665 5665 5666 5666 5665 5665 5665 5664 5663 5662 5662 5661 5661 5661 5661 5660 5659 5658 5656 5655 5653 5651 5650 5648 5646 5644 5642 5641 5639 5637 5635 5632 5630 5627 5623 5620 5616 5612 5609 5605 5601 5597 5594 5589 5585 5580 5575
5649 5651 5652 5653 5654 5655 5656 5657 5657 5658 5659 5659 5660 5660 5660 5660 5661 5661 5661 5660 5660 5659 5658 5657 5657 5656 5656 5656 5656 5655 5654 5653 5652 5650 5649 5647 5645 5643 5641 5639 5637 5636 5634 5632 5630 5627 5624 5622 5619 5615 5611 5608 5604 5600 5597 5593 5590 5586 5581 5576 5571 5567
5647 5648 5649 5650 5652 5653 5653 5653 5654 5654 5655 5655 5655 5656 5656 5656 5656 5656 5656 5655 5655 5654 5653 5652 5652 5652 5651 5651 5650 5650 5649 5647 5646 5644 5642 5640 5638 5636 5634 5633 5631 5629 5627 5625 5622 5620 5616 5613 5611 5607 5603 5600 5596 5592 5589 5585 5582 5577 5573 5568 5563 5559
5644 5645 5646 5647 5648 5649 5649 5649 5649 5650 5650 5651 5651 5651 5651 5652 5652 5651 5651 5650 5649 5649 5648 5647 5647 5646 5646 5646 5645 5644 5642 5641 5640 5638 5636 5634 5632 5630 5628 5626 5624 5621 5619 5617 5614 5611 5608 5605 5602 5599 5596 5592 5588 5585 5581 5578 5574 5569 5565 5559 5555 5551
5640 5641 5642 5643 5644 5644 5644 5644 5645 5645 5646 5647 5647 5647 5648 5648 5647 5646 5646 5645 5644 5643 5643 5642 5641 5641 5640 5640 5639 5637 5636 5635 5634 5632 5630 5627 5625 5623 5621 5619 5616 5614 5611 5609 5606 5603 5600 5597 5594 5591 5588 5584 5581 5577 5574 5570 5566 5562 5557 5552 5547 5543
5637 5637 5638 5639 5639 5639 5639 5640 5641 5642 5643 5642 5642 5644 5644 5643 5642 5640 5640 5640 5639 5638 5637 5637 5636 5635 5635 5634 5632 5631 5629 5628 5627 5625 5623 5620 5618 5616 5614 5611 5608 5606 5603 5600 5598 5595 5592 5589 5586 5583 5580 5577 5573 5570 5566 5562 5559 5554 5549 5544 5540 5535
5634 5635 5635 5635 5635 5636 5636 5636 5637 5638 5638 5638 5639 5640 5639 5637 5635 5635 5634 5634 5633 5632 5632 5631 5630 5629 5628 5627 5625 5624 5623 5621 5620 5618 5615 5612 5611 5609 5606 5603 5601 5598 5595 5592 5590 5587 5584 5581 5578 5574 5571 5569 5566 5562 5558 5554 5551 5547 5542 5537 5533 5529
5632 5632 5632 5632 5632 5633 5633 5633 5633 5634 5633 5634 5636 5635 5632 5630 5629 5629 5629 5628 5627 5626 5625 5625 5624 5623 5622 5620 5618 5616 5615 5614 5613 5610 5607 5605 5603 5601 5598 5595 5593 5590 5587 5584 5581 5579 5576 5573 5569 5566 5563 5560 5557 5554 5551 5547 5543 5540 5535 5530 5526 5521
5629 5629 5629 5629 5629 5629 5629 5629 5630 5629 5629 5630 5630 5628 5626 5625 5625 5624 5623 5622 5621 5620 5619 5618 5617 5616 5614 5612 5610 5609 5608 5606 5605 5602 5599 5597 5596 5594 5590 5587 5585 5582 5580 5577 5574 5571 5568 5564 5561 5558 5555 5552 5549 5546 5543 5540 5535 5531 5528 5523 5518 5514
5626 5626 5625 5626 5626 5625 5625 5625 5625 5624 5625 5625 5623 5621 5620 5620 5619 5618 5617 5616 5615 5614 5613 5611 5610 5609 5607 5605 5603 5601 5600 5598 5596 5594 5592 5590 5588 5586 5582 5579 5576 5574 5572 5570 5567 5563 5559 5556 5553 5550 5548 5544 5542 5538 5535 5531 5528 5524 5520 5516 5511 5506
5622 5622 5622 5622 5621 5621 5620 5620 5620 5620 5620 5618 5616 5615 5615 5614 5613 5613 5612 5611 5609 5608 5606 5604 5603 5601 5600 5597 5595 5593 5592 5590 5589 5587 5584 5582 5580 5577 5574 5571 5568 5566 5564 5562 5559 5555 5551 5548 5545 5542 5539 5536 5533 5530 5526 5523 5520 5516 5512 5508 5503 5498
5618 5618 5617 5617 5616 5616 5615 5615 5614 5615 5614 5611 5609 5609 5609 5607 5607 5607 5605 5604 5602 5600 5598 5597 5595 5594 5592 5590 5587 5586 5584 5582 5581 5578 5576 5574 5571 5568 5565 5562 5560 5558 5556 5554 5551 5547 5544 5540 5537 5533 5530 5528 5525 5522 5519 5515 5512 5508 5504 5500 5495 5490
5613 5613 5612 5612 5611 5610 5609 5609 5609 5608 5606 5603 5603 5602 5601 5600 5600 5599 5597 5596 5594 5592 5591 5590 5588 5585 5583 5582 5580 5578 5576 5574 5572 5570 5567 5565 5562 5559 5557 5554 5552 5550 5548 5545 5542 5539 5537 5533 5529 5525 5522 5519 5516 5513 5510 5507 5503 5500 5496 5492 5486 5481
5608 5607 5607 5606 5605 5604 5603 5603 5602 5601 5598 5597 5596 5595 5594 5593 5592 5591 5589 5587 5586 5584 5583 5581 5579 5577 5575 5573 5572 5570 5568 5566 5563 5561 5559 5556 5554 5551 5548 5546 5544 5542 5539 5537 5534 5531 5529 5526 5522 5518 5515 5512 5508 5505 5502 5499 5495 5492 5489 5484 5478 5473
5601 5600 5600 5599 5598 5596 5596 5595 5594 5592 5591 5590 5588 5587 5586 5585 5584 5582 5581 5579 5577 5576 5574 5572 5570 5568 5567 5565 5563 5561 5559 5557 5554 5552 5550 5548 5545 5543 5541 5538 5536 5533 5531 5528 5526 5524 5521 5518 5514 5510 5507 5504 5501 5498 5495 5491 5487 5484 5481 5477 5470 5465
5594 5593 5592 5591 5589 5588 5587 5587 5585 5583 5583 5582 5580 5578 5577 5575 5574 5573 5572 5570 5568 5567 5565 5563 5561 5560 5558 5556 5554 5552 5550 5548 5546 5543 5542 5540 5538 5535 5532 5530 5527 5525 5523 5520 5518 5515 5513 5509 5506 5503 5500 5497 5494 5491 5488 5484 5480 5477 5474 5470 5464 5458
5586 5585 5584 5582 5580 5579 5579 5578 5576 5575 5575 5573 5571 5569 5568 5566 5564 5563 5562 5561 5559 5557 5555 5553 5552 5550 5549 5547 5546 5543 5541 5539 5537 5534 5533 5532 5530 5527 5524 5522 5520 5518 5515 5512 5509 5507 5504 5501 5498 5495 5492 5490 5487 5484 5481 5477 5474 5470 5466 5463 5458 5453
5577 5576 5575 5573 5572 5572 5571 5570 5569 5567 5566 5565 5562 5560 5559 5557 5555 5554 5553 5551 5550 5548 5546 5544 5543 5541 5540 5538 5536 5534 5532 5530 5528 5526 5525 5524 5521 5518 5516 5514 5512 5510 5507 5504 5501 5499 5496 5493 5490 5488 5485 5482 5479 5477 5473 5470 5467 5463 5459 5455 5451 5446
5569 5568 5567 5566 5566 5565 5563 5562 5561 5560 5558 5556 5554 5552 5550 5548 5546 5545 5543 5542 5540 5538 5536 5535 5534 5532 5531 5529 5527 5525 5523 5522 5520 5517 5516 5514 5512 5510 5508 5507 5504 5502 5499 5496 5493 5491 5488 5485 5483 5480 5478 5475 5472 5470 5466 5463 5460 5456 5451 5447 5443 5438
5562 5561 5560 5560 5559 5557 5556 5555 5553 5552 5550 5547 5545 5542 5540 5539 5537 5536 5534 5533 5531 5529 5527 5526 5525 5523 5522 5520 5518 5516 5515 5513 5511 5509 5507 5506 5504 5502 5501 5499 5496 5494 5491 5488 5486 5483 5481 5478 5476 5473 5470 5467 5465 5463 5459 5456 5452 5448 5444 5439 5436 5431
5555 5554 5553 5552 5551 5549 5548 5547 5545 5543 5541 5538 5535 5533 5531 5530 5529 5528 5526 5524 5522 5520 5519 5517 5516 5514 5512 5511 5509 5508 5506 5505 5502 5501 5500 5499 5497 5494 5492 5490 5488 5485 5483 5480 5478 5476 5473 5470 5468 5466 5463 5460 5458 5455 5452 5448 5444 5441 5436 5432 5428 5424
5547 5547 5545 5544 5542 5541 5540 5539 5536 5534 5532 5529 5526 5524 5523 5522 5521 5520 5518 5516 5514 5513 5511 5509 5507 5505 5504 5502 5501 5499 5497 5496 5494 5493 5493 5491 5489 5486 5484 5482 5480 5477 5475 5473 5471 5469 5466 5463 5461 5459 5456 5454 5451 5448 5445 5441 5437 5433 5429 5425 5421 5417